Date String (YYYY-MM-DD hh:mm:ss) UTC,Instrument flags,Ambient pressure (hPa),Sample flow (lpm),Bypass flow (lpm),Sample temperature (°C),Ambient temperature (°C),ASC tube jacket temperature (°C),LED temperature (°C),Box temperature (°C),Sample RH (%),Span deviation,Mass concentration (μg/m³),Mass concentration (μg/m³),Mass concentration (μg/m³)
DateTimeUTC,F1_M11,P_M11,Q1_M11,Q2_M11,T1_M11,T2_M11,T3_M11,T4_M11,T5_M11,U1_M11,ZSPAN_M11,X0_M11,X2_M11,X1_M11
2022-11-28 16:00:00,,0812.2,5.00,0.00,22.7,21.7,00.0,31.5,24.7,08.4,0000.0,0001.87,0000.66,0000.46
2022-11-28 16:01:00,,0812.3,5.00,0.00,22.7,21.7,00.0,31.6,24.7,08.6,0000.0,0001.85,0000.66,0000.46
2022-11-28 16:02:00,,0812.2,5.00,0.00,22.7,21.7,00.0,31.6,24.7,08.7,0000.0,0001.85,0000.69,0000.47
2022-11-28 16:03:00,,0812.1,5.00,0.00,22.7,21.6,00.0,31.6,24.6,08.3,0000.0,0001.62,0000.68,0000.45
2022-11-28 16:04:00,,0812.1,4.99,0.00,22.7,21.6,00.0,31.6,24.6,08.3,0000.0,0001.39,0000.65,0000.44
2022-11-28 16:05:00,,0812.2,5.01,0.00,22.8,21.6,00.0,31.6,24.6,08.3,0000.0,0000.99,0000.61,0000.43
2022-11-28 16:06:00,,0812.1,5.01,0.00,22.7,21.6,00.0,31.6,24.6,08.4,0000.0,0000.88,0000.57,0000.42
2022-11-28 16:07:00,,0812.1,4.99,0.00,22.8,21.6,00.0,31.6,24.6,08.4,0000.0,0000.77,0000.54,0000.41
2022-11-28 16:08:00,,0812.1,4.99,0.00,22.8,21.6,00.0,31.6,24.7,08.3,0000.0,0000.71,0000.50,0000.40
2022-11-28 16:09:00,,0812.0,5.00,0.00,22.8,21.6,00.0,31.6,24.7,08.4,0000.0,0000.69,0000.48,0000.39
2022-11-28 16:10:00,,0812.0,5.00,0.00,22.8,21.6,00.0,31.6,24.7,08.4,0000.0,0000.77,0000.50,0000.39
2022-11-28 16:11:00,,0812.1,5.01,0.00,22.8,21.6,00.0,31.6,24.6,08.5,0000.0,0000.84,0000.51,0000.39
2022-11-28 16:12:00,,0812.1,5.01,0.00,22.8,21.6,00.0,31.6,24.6,08.6,0000.0,0001.24,0000.51,0000.39
2022-11-28 16:13:00,,0812.0,5.00,0.00,22.7,21.6,00.0,31.6,24.6,08.6,0000.0,0001.38,0000.50,0000.37
2022-11-28 16:14:00,,0812.0,4.99,0.00,22.7,21.6,00.0,31.6,24.6,08.5,0000.0,0001.34,0000.47,0000.36
2022-11-28 16:15:00,,0812.0,4.99,0.00,22.7,21.6,00.0,31.6,24.6,08.5,0000.0,0001.34,0000.47,0000.36
2022-11-28 16:16:00,,0812.0,5.01,0.00,22.8,21.6,00.0,31.6,24.6,08.4,0000.0,0001.34,0000.47,0000.37
2022-11-28 16:17:00,,0811.9,5.01,0.00,22.8,21.6,00.0,31.6,24.6,08.6,0000.0,0001.35,0000.48,0000.36
2022-11-28 16:18:00,,0811.9,5.00,0.00,22.8,21.6,00.0,31.6,24.6,08.4,0000.0,0001.37,0000.48,0000.36
2022-11-28 16:19:00,,0811.9,4.99,0.00,22.8,21.6,00.0,31.6,24.6,08.5,0000.0,0001.48,0000.50,0000.37
2022-11-28 16:20:00,,0811.8,5.00,0.00,22.8,21.6,00.0,31.6,24.6,08.5,0000.0,0001.51,0000.51,0000.37
2022-11-28 16:21:00,,0811.8,5.00,0.00,22.8,21.6,00.0,31.6,24.6,08.6,0000.0,0001.50,0000.51,0000.38
2022-11-28 16:22:00,,0811.9,5.01,0.00,22.8,21.6,00.0,31.6,24.5,08.8,0000.0,0001.39,0000.49,0000.38
2022-11-28 16:23:00,,0811.9,5.00,0.00,22.8,21.6,00.0,31.6,24.5,08.6,0000.0,0001.39,0000.50,0000.38
2022-11-28 16:24:00,,0811.9,5.00,0.00,22.8,21.6,00.0,31.7,24.6,08.4,0000.0,0000.94,0000.50,0000.37
2022-11-28 16:25:00,,0811.9,5.00,0.00,22.8,21.6,00.0,31.7,24.6,08.5,0000.0,0000.78,0000.47,0000.38
2022-11-28 16:26:00,,0811.9,4.99,0.00,22.8,21.6,00.0,31.7,24.7,08.7,0000.0,0000.78,0000.47,0000.38
2022-11-28 16:27:00,,0812.0,4.99,0.00,22.8,21.6,00.0,31.7,24.7,08.9,0000.0,0000.77,0000.46,0000.38
2022-11-28 16:28:00,,0812.1,4.99,0.00,22.8,21.6,00.0,31.7,24.8,09.0,0000.0,0000.80,0000.48,0000.38
2022-11-28 16:29:00,,0812.1,5.00,0.00,22.8,21.7,00.0,31.7,24.8,09.4,0000.0,0000.90,0000.54,0000.43
2022-11-28 16:30:00,,0812.0,5.00,0.00,22.8,21.7,00.0,31.7,24.8,08.7,0000.0,0001.05,0000.53,0000.42
2022-11-28 16:31:00,,0812.1,5.01,0.00,22.9,21.7,00.0,31.7,24.8,08.8,0000.0,0001.54,0000.54,0000.42
2022-11-28 16:32:00,,0812.1,5.01,0.00,22.9,21.7,00.0,31.7,24.8,09.7,0000.0,0001.62,0000.60,0000.45
2022-11-28 16:33:00,,0812.1,5.00,0.00,22.9,21.7,00.0,31.7,24.8,08.9,0000.0,0001.63,0000.60,0000.45
2022-11-28 16:34:00,,0812.1,5.00,0.00,22.9,21.8,00.0,31.7,24.8,08.9,0000.0,0001.68,0000.61,0000.45
2022-11-28 16:35:00,,0812.1,4.99,0.00,22.9,21.8,00.0,31.7,24.8,09.8,0000.0,0001.90,0000.74,0000.50
2022-11-28 16:36:00,,0812.0,5.00,0.00,22.9,21.8,00.0,31.7,24.8,09.0,0000.0,0002.08,0000.83,0000.53
2022-11-28 16:37:00,,0811.9,5.00,0.00,22.9,21.8,00.0,31.8,24.7,08.7,0000.0,0002.12,0000.84,0000.53
2022-11-28 16:38:00,,0811.9,5.00,0.00,22.9,21.8,00.0,31.8,24.7,09.1,0000.0,0002.18,0000.87,0000.54
2022-11-28 16:39:00,,0811.9,5.01,0.00,22.9,21.8,00.0,31.8,24.8,09.9,0000.0,0002.68,0000.99,0000.59
2022-11-28 16:40:00,,0812.0,5.00,0.00,22.9,21.8,00.0,31.8,24.8,10.3,0000.0,0003.52,0001.14,0000.66
2022-11-28 16:41:00,,0811.8,5.01,0.00,23.0,21.9,00.0,31.8,24.9,10.1,0000.0,0005.73,0001.30,0000.73
2022-11-28 16:42:00,,0811.8,4.98,0.00,23.0,21.9,00.0,31.8,24.9,10.0,0000.0,0007.04,0001.46,0000.82
2022-11-28 16:43:00,,0811.9,5.00,0.00,23.0,21.9,00.0,31.8,24.9,09.8,0000.0,0008.20,0001.53,0000.89
2022-11-28 16:44:00,,0811.8,5.01,0.00,23.0,22.0,00.0,31.8,24.9,10.3,0000.0,0008.84,0001.66,0000.95
2022-11-28 16:45:00,,0811.9,5.00,0.00,23.0,22.0,00.0,31.8,24.9,10.6,0000.0,0009.18,0001.87,0001.06
2022-11-28 16:46:00,,0811.9,5.00,0.00,23.1,22.0,00.0,31.8,25.0,10.5,0000.0,0009.44,0002.01,0001.13
2022-11-28 16:47:00,,0811.9,4.99,0.00,23.1,22.0,00.0,31.9,25.0,10.2,0000.0,0009.93,0002.13,0001.21
2022-11-28 16:48:00,,0811.9,5.00,0.00,23.1,22.1,00.0,31.9,25.0,09.7,0000.0,0010.14,0002.28,0001.28
2022-11-28 16:49:00,,0811.8,5.01,0.00,23.1,22.1,00.0,31.9,25.0,10.1,0000.0,0010.60,0002.44,0001.36
2022-11-28 16:50:00,,0811.8,4.99,0.00,23.1,22.1,00.0,31.9,25.0,10.0,0000.0,0011.01,0002.48,0001.41
2022-11-28 16:51:00,,0811.9,4.99,0.00,23.2,22.2,00.0,31.9,25.0,09.9,0000.0,0010.61,0002.42,0001.40
2022-11-28 16:52:00,,0811.9,5.00,0.00,23.2,22.2,00.0,31.9,25.0,10.0,0000.0,0009.79,0002.35,0001.37
2022-11-28 16:53:00,,0811.8,5.01,0.00,23.2,22.2,00.0,31.9,25.1,09.8,0000.0,0008.82,0002.37,0001.37
2022-11-28 16:54:00,,0811.8,5.00,0.00,23.2,22.2,00.0,32.0,25.1,09.9,0000.0,0008.08,0002.37,0001.37
2022-11-28 16:55:00,,0811.8,5.00,0.00,23.2,22.3,00.0,32.0,25.1,09.6,0000.0,0007.54,0002.34,0001.34
2022-11-28 16:56:00,,0811.9,5.00,0.00,23.2,22.3,00.0,32.0,25.1,09.4,0000.0,0007.65,0002.25,0001.27
2022-11-28 16:57:00,,0812.0,5.01,0.00,23.3,22.3,00.0,32.0,25.1,09.2,0000.0,0007.33,0002.03,0001.19
2022-11-28 16:58:00,,0811.9,5.00,0.00,23.3,22.3,00.0,32.0,25.1,08.7,0000.0,0007.66,0001.83,0001.08
2022-11-28 16:59:00,,0812.0,4.99,0.00,23.3,22.3,00.0,32.1,25.1,08.7,0000.0,0007.58,0001.70,0001.01
